Rose Hill, VA

11:34 AM EDT on July 26, 2016 (GMT -0400)
Jonesville

Weather History for K0VG - February, 2013

Change the Weather History Date:

Sunday, February 10, 2013

  Actual Average (KLOZ) Record (KLOZ)
Temperature  
Mean Temperature 42 °F 38 °F  
Max Temperature 57 °F 48 °F 69 °F (1959)
Min Temperature 28 °F 28 °F -7 °F (1979)
Degree Days  
Heating Degree Days 22 27  
Month to date heating degree days 275  
Since 1 July heating degree days 2838  
Cooling Degree Days 0 0  
Month to date cooling degree days 0  
Year to date cooling degree days 0  
Moisture  
Dew Point 28 °F    
Average Humidity 63    
Maximum Humidity 93    
Minimum Humidity 20    
Precipitation  
Precipitation 0.09 in 0.13 in 1.42 in (1960)
Sea Level Pressure  
Sea Level Pressure 30.17 in    
Wind  
Wind Speed 3 mph (ESE)    
Max Wind Speed 14 mph    
Max Gust Speed 20 mph    
Visibility 10 miles    
Events Rain    
T = Trace of Precipitation, MM = Missing Value Source: NWS Daily Summary

Daily Weather History Graph

Daily Weather History Graph

Search for Another Location

Airport or City:

Trip Planner

Search our weather history database for the weather conditions in past years. The results will help you decide how hot, cold, wet, or windy it might be!

Date:

Astronomy

Feb. 10, 2013 Rise Set
Actual Time 7:26 AM EST 6:08 PM EST
Civil Twilight 6:59 AM EST 6:35 PM EST
Nautical Twilight 6:29 AM EST 7:05 PM EST
Astronomical Twilight 5:58 AM EST 7:35 PM EST
Moon 7:17 AM EST (2/10) 6:55 PM EST (2/10)
Length of Visible Light 11h 35m
Length of Day
10h 42m
New Moon, 0% of the Moon is Illuminated
Feb 10
New Moon
Feb 17
First Quarter
Feb 25
Full
Mar 4
Last Quarter
Mar 11
New

Hourly Weather History & Observations

Time (EST) Temp. Windchill Dew Point Humidity Pressure Visibility Wind Dir Wind Speed Gust Speed Precip Events Conditions
12:15 AM 28.4 °F - 24.8 °F 86% 30.25 in 10.0 mi Calm Calm - N/A   Clear
12:55 AM 30.2 °F - 26.6 °F 86% 30.25 in 10.0 mi Calm Calm - N/A   Clear
1:15 AM 28.4 °F - 24.8 °F 86% 30.25 in 10.0 mi Calm Calm - N/A   Clear
1:35 AM 28.4 °F - 24.8 °F 86% 30.25 in 10.0 mi Calm Calm - N/A   Clear
1:55 AM 30.2 °F - 26.6 °F 86% 30.25 in 10.0 mi Calm Calm - N/A   Clear
2:15 AM 30.2 °F - 26.6 °F 86% 30.25 in 10.0 mi Calm Calm - N/A   Clear
2:35 AM 32.0 °F - 26.6 °F 80% 30.25 in 10.0 mi Calm Calm - N/A   Clear
2:55 AM 32.0 °F - 26.6 °F 80% 30.24 in 10.0 mi Calm Calm - N/A   Clear
3:15 AM 32.0 °F - 26.6 °F 80% 30.24 in 10.0 mi Calm Calm - N/A   Clear
3:35 AM 32.0 °F - 28.4 °F 87% 30.24 in 10.0 mi Calm Calm - N/A   Partly Cloudy
3:55 AM 32.0 °F - 26.6 °F 80% 30.25 in 10.0 mi Calm Calm - N/A   Mostly Cloudy
4:15 AM 32.0 °F 28.7 °F 26.6 °F 80% 30.24 in 10.0 mi NNE 3.5 mph - N/A   Scattered Clouds
4:55 AM 32.0 °F - 26.6 °F 80% 30.24 in 10.0 mi Calm Calm - N/A   Mostly Cloudy
5:15 AM 32.0 °F - 28.4 °F 87% 30.24 in 10.0 mi Calm Calm - N/A   Overcast
5:35 AM 32.0 °F - 28.4 °F 87% 30.25 in 10.0 mi Calm Calm - N/A   Mostly Cloudy
5:55 AM 32.0 °F - 28.4 °F 87% 30.25 in 10.0 mi Calm Calm - N/A   Scattered Clouds
6:15 AM 32.0 °F 28.7 °F 28.4 °F 87% 30.27 in 10.0 mi SW 3.5 mph - N/A   Clear
6:35 AM 32.0 °F - 28.4 °F 87% 30.27 in 10.0 mi Calm Calm - N/A   Scattered Clouds
6:55 AM 32.0 °F - 28.4 °F 87% 30.27 in 10.0 mi Calm Calm - N/A   Mostly Cloudy
7:15 AM 32.0 °F 28.7 °F 28.4 °F 87% 30.25 in 10.0 mi ENE 3.5 mph - N/A   Mostly Cloudy
7:35 AM 33.8 °F - 30.2 °F 87% 30.27 in 10.0 mi Calm Calm - N/A   Scattered Clouds
7:55 AM 33.8 °F - 28.4 °F 81% 30.26 in 10.0 mi Calm Calm - N/A   Clear
8:15 AM 33.8 °F - 30.2 °F 87% 30.26 in 10.0 mi Calm Calm - N/A   Clear
8:35 AM 39.2 °F 37.0 °F 26.6 °F 61% 30.27 in 10.0 mi ENE 3.5 mph - N/A   Clear
8:55 AM 41.0 °F 38.0 °F 26.6 °F 57% 30.27 in 10.0 mi East 4.6 mph - N/A   Clear
9:15 AM 46.4 °F 42.9 °F 23.0 °F 40% 30.26 in 10.0 mi East 6.9 mph - N/A   Clear
9:35 AM 46.4 °F 42.9 °F 23.0 °F 40% 30.25 in 10.0 mi NE 6.9 mph - N/A   Clear
9:55 AM 48.2 °F - 23.0 °F 37% 30.26 in 10.0 mi NNE 4.6 mph - N/A   Clear
10:15 AM 48.2 °F - 19.4 °F 32% 30.26 in 10.0 mi SE 5.8 mph - N/A   Clear
10:35 AM 50.0 °F - 19.4 °F 30% 30.25 in 10.0 mi East 6.9 mph - N/A   Clear
10:55 AM 50.0 °F - 19.4 °F 30% 30.25 in 10.0 mi SE 6.9 mph - N/A   Clear
11:15 AM 50.0 °F - 19.4 °F 30% 30.24 in 10.0 mi ESE 6.9 mph - N/A   Clear
11:35 AM 50.0 °F - 19.4 °F 30% 30.23 in 10.0 mi East 5.8 mph - N/A   Clear
11:55 AM 51.8 °F - 19.4 °F 28% 30.21 in 10.0 mi ESE 8.1 mph - N/A   Clear
12:15 PM 53.6 °F - 19.4 °F 26% 30.20 in 10.0 mi SE 8.1 mph - N/A   Clear
12:35 PM 55.4 °F - 17.6 °F 23% 30.19 in 10.0 mi SE 10.4 mph 16.1 mph N/A   Clear
12:55 PM 55.4 °F - 17.6 °F 23% 30.16 in 10.0 mi SE 11.5 mph 17.3 mph N/A   Clear
1:15 PM 57.2 °F - 15.8 °F 20% 30.13 in 10.0 mi SE 10.4 mph 19.6 mph N/A   Clear
1:35 PM 57.2 °F - 15.8 °F 20% 30.11 in 10.0 mi SSE 13.8 mph 19.6 mph N/A   Clear
1:55 PM 57.2 °F - 15.8 °F 20% 30.12 in 10.0 mi South 10.4 mph - N/A   Partly Cloudy
2:15 PM 57.2 °F - 15.8 °F 20% 30.11 in 10.0 mi South 11.5 mph - N/A   Clear
2:35 PM 57.2 °F - 15.8 °F 20% 30.10 in 10.0 mi SSE 9.2 mph - N/A   Partly Cloudy
2:55 PM 57.2 °F - 15.8 °F 20% 30.09 in 10.0 mi SE 11.5 mph 17.3 mph N/A   Clear
3:15 PM 57.2 °F - 17.6 °F 21% 30.09 in 10.0 mi SSE 12.7 mph - N/A   Clear
3:35 PM 55.4 °F - 17.6 °F 23% 30.09 in 10.0 mi SSE 6.9 mph - N/A   Clear
3:55 PM 55.4 °F - 17.6 °F 23% 30.10 in 10.0 mi SSE 6.9 mph - N/A   Scattered Clouds
4:15 PM 55.4 °F - 19.4 °F 25% 30.11 in 10.0 mi SSE 6.9 mph - N/A   Mostly Cloudy
4:35 PM 53.6 °F - 23.0 °F 30% 30.10 in 10.0 mi SSE 9.2 mph - N/A   Mostly Cloudy
4:55 PM 50.0 °F - 28.4 °F 43% 30.11 in 6.0 mi SSE 8.1 mph - N/A Rain Light Rain
5:15 PM 48.2 °F - 33.8 °F 58% 30.13 in 4.0 mi SE 3.5 mph - 0.01 in Rain Light Rain
5:35 PM 46.4 °F 43.5 °F 37.4 °F 71% 30.13 in 4.0 mi SE 5.8 mph - 0.03 in Rain Light Rain
5:55 PM 44.6 °F 43.1 °F 37.4 °F 76% 30.13 in 5.0 mi ESE 3.5 mph - 0.06 in Rain Light Rain
6:15 PM 44.6 °F 42.2 °F 39.2 °F 81% 30.13 in 5.0 mi NE 4.6 mph - 0.01 in Rain Light Rain
6:35 PM 42.8 °F 39.3 °F 41.0 °F 93% 30.12 in 7.0 mi NE 5.8 mph - 0.03 in Rain Light Rain
6:55 PM 44.6 °F 41.4 °F 41.0 °F 87% 30.11 in 10.0 mi ENE 5.8 mph - 0.03 in Rain Light Rain
7:15 PM 44.6 °F 41.4 °F 39.2 °F 81% 30.08 in 8.0 mi ENE 5.8 mph - N/A Rain Light Rain
7:35 PM 44.6 °F 39.2 °F 41.0 °F 87% 30.10 in 10.0 mi SE 10.4 mph - N/A   Overcast
7:55 PM 44.6 °F 41.4 °F 41.0 °F 87% 30.08 in 10.0 mi East 5.8 mph - N/A   Overcast
8:15 PM 46.4 °F - 41.0 °F 81% 30.09 in 10.0 mi Calm Calm - N/A   Overcast
8:35 PM 46.4 °F 44.3 °F 41.0 °F 81% 30.07 in 10.0 mi SE 4.6 mph - N/A   Overcast
8:55 PM 46.4 °F 45.2 °F 41.0 °F 81% 30.07 in 10.0 mi NE 3.5 mph - N/A   Overcast
9:15 PM 44.6 °F 41.4 °F 41.0 °F 87% 30.06 in 10.0 mi ENE 5.8 mph - N/A   Overcast
9:35 PM 44.6 °F 41.4 °F 41.0 °F 87% 30.05 in 10.0 mi ENE 5.8 mph - N/A   Overcast
9:55 PM 44.6 °F 41.4 °F 41.0 °F 87% 30.05 in 10.0 mi NNE 5.8 mph - N/A   Overcast
10:15 PM 46.4 °F 42.4 °F 41.0 °F 81% 30.04 in 10.0 mi ENE 8.1 mph - N/A   Overcast
10:35 PM 46.4 °F 43.5 °F 41.0 °F 81% 30.04 in 10.0 mi ENE 5.8 mph - N/A   Overcast
10:55 PM 46.4 °F 43.5 °F 41.0 °F 81% 30.03 in 10.0 mi ENE 5.8 mph - N/A   Overcast
11:15 PM 46.4 °F - 41.0 °F 81% 30.02 in 10.0 mi Calm Calm - N/A   Overcast
11:35 PM 46.4 °F 45.2 °F 41.0 °F 81% 30.02 in 10.0 mi NNE 3.5 mph - N/A   Overcast
11:55 PM 46.4 °F - 42.8 °F 87% 30.02 in 10.0 mi Calm Calm - N/A   Overcast